TimePDT,TemperatureF,Dew PointF,Humidity,Sea Level PressureIn,VisibilityMPH,Wind Direction,Wind SpeedMPH,Gust SpeedMPH,PrecipitationIn,Events,Conditions,WindDirDegrees,DateUTC
12:56 AM,93.0,46.9,20,29.87,10.0,West,12.7,-,N/A,,Clear,260,2013-06-28 07:56:00
1:56 AM,89.1,43.0,20,29.85,10.0,West,8.1,-,N/A,,Clear,260,2013-06-28 08:56:00
2:56 AM,84.9,42.1,22,29.84,10.0,West,8.1,-,N/A,,Clear,280,2013-06-28 09:56:00
3:56 AM,84.0,39.9,21,29.83,10.0,WNW,6.9,-,N/A,,Clear,290,2013-06-28 10:56:00
4:56 AM,84.0,37.9,19,29.83,10.0,West,5.8,-,N/A,,Clear,280,2013-06-28 11:56:00
5:56 AM,82.9,37.0,19,29.85,10.0,West,4.6,-,N/A,,Clear,260,2013-06-28 12:56:00
6:56 AM,84.0,43.0,24,29.86,10.0,Calm,Calm,-,N/A,,Clear,0,2013-06-28 13:56:00
7:56 AM,91.0,41.0,17,29.87,10.0,West,3.5,-,N/A,,Clear,280,2013-06-28 14:56:00
8:56 AM,97.0,39.0,13,29.87,10.0,SSW,3.5,-,N/A,,Clear,200,2013-06-28 15:56:00
9:56 AM,102.0,41.0,12,29.86,10.0,SSW,3.5,-,N/A,,Clear,210,2013-06-28 16:56:00
10:56 AM,107.1,30.9,7,29.85,10.0,SSW,3.5,-,N/A,,Clear,210,2013-06-28 17:56:00
11:56 AM,111.0,30.0,6,29.83,10.0,Calm,Calm,-,N/A,,Clear,0,2013-06-28 18:56:00
12:56 PM,111.9,37.9,8,29.79,10.0,Variable,3.5,-,N/A,,Partly Cloudy,0,2013-06-28 19:56:00
1:57 PM,114.1,42.1,9,29.78,10.0,East,6.9,-,N/A,,Partly Cloudy,80,2013-06-28 20:57:00
2:56 PM,-9999,-9999,N/A,29.75,10.0,East,6.9,-,N/A,,Partly Cloudy,80,2013-06-28 21:56:00
3:56 PM,-9999,-9999,N/A,29.72,-9999.0,North,-9999.0,-,N/A,,Unknown,0,2013-06-28 22:56:00
4:56 PM,-9999,-9999,N/A,29.70,-9999.0,North,-9999.0,-,N/A,,Unknown,0,2013-06-28 23:56:00
5:56 PM,114.8,46.4,10,29.68,10.0,WSW,5.8,-,N/A,,Clear,240,2013-06-29 00:56:00
6:56 PM,-9999,-9999,N/A,29.69,-9999.0,North,-9999.0,-,N/A,,Unknown,0,2013-06-29 01:56:00
7:56 PM,107.1,37.9,9,29.70,10.0,WSW,13.8,-,N/A,,Unknown,250,2013-06-29 02:56:00
8:56 PM,102.0,42.1,13,29.72,10.0,WSW,10.4,-,N/A,,Unknown,250,2013-06-29 03:56:00
9:56 PM,98.1,46.0,17,29.73,10.0,WSW,8.1,-,N/A,,Unknown,250,2013-06-29 04:56:00
10:56 PM,97.0,46.0,18,29.74,10.0,WSW,10.4,-,N/A,,Unknown,250,2013-06-29 05:56:00
11:56 PM,95.0,44.1,17,29.74,10.0,WSW,9.2,-,N/A,,Unknown,250,2013-06-29 06:56:00